Regional Weather Roundup
Issued by NWS Goodland, KS

Home | Current Version | Previous Version | Graphics & Text | Print | Product List | Glossary On
Versions: 1 2 3 4 5 6 7 8 9 10 11 12 13 14 15 16 17 18 19 20 21 22 23 24 25 26 27 28 29 30 31 32 33 34 35 36 37 38 39 40 41 42 43 44 45 46 47 48 49 50
000
ASUS43 KGLD 212259
RWRGLD

GOODLAND FORECAST AREA HOURLY WEATHER ROUNDUP
NATIONAL WEATHER SERVICE GOODLAND KS
400 PM MST WED FEB 21 2018

...OFFICIAL OBSERVATIONS...

CITY           SKY/WX    TMP DP  RH WIND       PRES   REMARKS
GOODLAND KS    CLOUDY    27   3  35 SE13      30.27R WCI  16
HILL CITY KS   CLOUDY    27  -1  30 SE8       30.43R
IMPERIAL NEB   FAIR      26  10  50 SE10      30.31F WCI  16
MCCOOK NEB     PTSUNNY   29   5  36 SE13      30.37S WCI  19
AKRON CO       FAIR      25  12  58 SE20      30.16S WCI  11
BURLINGTON CO  CLOUDY    27  10  49 SE16G22   30.22S WCI  15
LIMON CO       FAIR      27   9  46 S16G23    30.11S WCI  15
$$

...UNOFFICIAL OBSERVATIONS...

CITY           SKY/WX    TMP DP  RH WIND       PRES   REMARKS
LENORA KS        N/A     28  32 100 CALM        N/A
TRENTON NEB      N/A     31  32 100 S7          N/A
YUMA CO        FAIR      27  10  50 SE15G21   30.21S WCI  15
$$




USA.gov is the U.S. government's official web portal to all federal, state and local government web resources and services.